Private Wetterstation Wechselburg
Wetterdaten: Dienstag, 06.12.2011
Datum Zeit Temp. +2m Bodentemp. Temp.+5cm Temp. Wind Windchill X Diff Temp. Feuchte +2m Feuchte +5cm Sonnenschein Luftdruck Regen Wind Richtung Richtung Sonnenschein UV Taupunkt Windchill Windben
06.12.2011 00:00 1,1 C 10,3 C 0,9 C 0,0 C -3,3 C 0,0 C 88 % 92 % 0 % 1007,4 hPa 0,0 l/m 12,9 km/h (3 Bft) NW 315 0 min 0,0 UV-I -0,7 C -8,0 C 5,1 km/h (1 Bft)
06.12.2011 00:04 1,1 C 10,2 C 0,9 C 0,5 C -2,6 C 0,0 C 88 % 92 % 0 % 1007,4 hPa 0,0 l/m 10,1 km/h (2 Bft) S 180 0 min 0,0 UV-I -0,7 C -6,4 C 6,8 km/h (2 Bft)
06.12.2011 00:09 1,2 C 10,2 C 0,9 C 0,3 C -2,2 C 0,0 C 88 % 92 % 0 % 1007,4 hPa 0,0 l/m 9,0 km/h (2 Bft) S-SW 202 0 min 0,0 UV-I -0,6 C -5,6 C 14,8 km/h (3 Bft)
06.12.2011 00:14 1,5 C 10,1 C 0,9 C 0,6 C -2,5 C 0,0 C 86 % 92 % 0 % 1007,4 hPa 0,0 l/m 10,5 km/h (2 Bft) SW 225 0 min 0,0 UV-I -0,6 C -6,4 C 11,6 km/h (2 Bft)
06.12.2011 00:20 1,5 C 10,2 C 0,9 C 0,6 C -2,1 C 0,0 C 85 % 92 % 0 % 1006,9 hPa 0,0 l/m 8,9 km/h (2 Bft) S 180 0 min 0,0 UV-I -0,7 C -5,5 C 3,1 km/h (1 Bft)
06.12.2011 00:25 1,5 C 10,1 C 1,0 C 0,8 C -0,7 C 0,0 C 85 % 92 % 0 % 1006,9 hPa 0,0 l/m 4,8 km/h (1 Bft) W-SW 247 0 min 0,0 UV-I -0,7 C -2,3 C 4,8 km/h (1 Bft)
06.12.2011 00:30 1,4 C 10,2 C 0,9 C 0,9 C -0,2 C 0,0 C 86 % 92 % 0 % 1006,9 hPa 0,0 l/m 3,9 km/h (1 Bft) O-SO 112 0 min 0,0 UV-I -0,7 C -0,2 C 5,0 km/h (1 Bft)
06.12.2011 00:35 1,5 C 10,2 C 0,9 C 0,6 C -1,2 C 0,0 C 86 % 92 % 0 % 1006,9 hPa 0,0 l/m 5,6 km/h (1 Bft) W-SW 247 0 min 0,0 UV-I -0,6 C -3,2 C 10,1 km/h (2 Bft)
06.12.2011 00:40 1,4 C 10,1 C 0,9 C 0,6 C -2,1 C 0,0 C 85 % 92 % 0 % 1007,3 hPa 0,0 l/m 8,7 km/h (2 Bft) SW 225 0 min 0,0 UV-I -0,8 C -5,4 C 14,8 km/h (3 Bft)
06.12.2011 00:45 1,5 C 10,1 C 1,0 C 0,5 C -2,7 C 0,0 C 86 % 92 % 0 % 1007,3 hPa 0,0 l/m 10,9 km/h (2 Bft) W-SW 247 0 min 0,0 UV-I -0,6 C -6,8 C 21,9 km/h (4 Bft)
06.12.2011 00:50 1,5 C 10,1 C 1,0 C 0,5 C -2,6 C 0,0 C 86 % 92 % 0 % 1007,3 hPa 0,0 l/m 10,6 km/h (2 Bft) W-SW 247 0 min 0,0 UV-I -0,6 C -6,6 C 18,5 km/h (3 Bft)
06.12.2011 00:55 1,5 C 10,1 C 1,1 C 0,1 C -2,6 C 0,0 C 86 % 92 % 0 % 1007,3 hPa 0,0 l/m 10,6 km/h (2 Bft) W-SW 247 0 min 0,0 UV-I -0,6 C -6,6 C 17,5 km/h (3 Bft)
06.12.2011 01:00 1,5 C 10,1 C 1,1 C 0,5 C -2,9 C 0,0 C 86 % 92 % 0 % 1007,4 hPa 0,0 l/m 11,7 km/h (2 Bft) W-SW 247 0 min 0,0 UV-I -0,6 C -7,2 C 17,4 km/h (3 Bft)
06.12.2011 01:04 1,6 C 10,1 C 1,1 C 0,8 C -3,0 C 0,0 C 85 % 92 % 0 % 1007,4 hPa 0,0 l/m 12,6 km/h (3 Bft) S 180 0 min 0,0 UV-I -0,6 C -7,6 C 12,9 km/h (3 Bft)
06.12.2011 01:09 1,7 C 10,1 C 1,1 C 0,6 C -2,8 C 0,0 C 85 % 92 % 0 % 1007,4 hPa 0,0 l/m 11,7 km/h (2 Bft) W-NW 292 0 min 0,0 UV-I -0,5 C -7,1 C 10,6 km/h (2 Bft)
06.12.2011 01:14 1,7 C 10,1 C 1,1 C 0,7 C -2,1 C 0,0 C 85 % 92 % 0 % 1007,4 hPa 0,0 l/m 9,0 km/h (2 Bft) W-SW 247 0 min 0,0 UV-I -0,5 C -5,5 C 14,8 km/h (3 Bft)
06.12.2011 01:20 1,7 C 10,0 C 1,2 C 0,4 C -2,1 C 0,0 C 85 % 92 % 0 % 1007,6 hPa 0,7 l/m 8,7 km/h (2 Bft) SW 225 0 min 0,0 UV-I -0,5 C -5,4 C 17,2 km/h (3 Bft)
06.12.2011 01:25 1,7 C 10,0 C 1,2 C 0,7 C -2,2 C 0,0 C 85 % 92 % 0 % 1007,6 hPa 0,0 l/m 9,2 km/h (2 Bft) SW 225 0 min 0,0 UV-I -0,5 C -5,7 C 14,8 km/h (3 Bft)
06.12.2011 01:30 1,7 C 10,0 C 1,2 C 0,7 C -2,1 C 0,0 C 85 % 92 % 0 % 1007,6 hPa 0,0 l/m 8,9 km/h (2 Bft) SW 225 0 min 0,0 UV-I -0,5 C -5,5 C 14,0 km/h (3 Bft)
06.12.2011 01:35 1,7 C 10,0 C 1,2 C 0,4 C -2,1 C 0,0 C 85 % 92 % 0 % 1007,6 hPa 0,0 l/m 9,0 km/h (2 Bft) W-SW 247 0 min 0,0 UV-I -0,5 C -5,5 C 13,8 km/h (3 Bft)
06.12.2011 01:40 1,7 C 10,0 C 1,2 C 0,4 C -2,1 C 0,0 C 85 % 92 % 0 % 1008,2 hPa 0,0 l/m 8,9 km/h (2 Bft) W-SW 247 0 min 0,0 UV-I -0,5 C -5,5 C 13,7 km/h (3 Bft)
06.12.2011 01:45 1,9 C 10,0 C 1,3 C 0,9 C -2,2 C 0,0 C 85 % 92 % 0 % 1008,2 hPa 0,0 l/m 9,7 km/h (2 Bft) W-SW 247 0 min 0,0 UV-I -0,3 C -5,9 C 10,3 km/h (2 Bft)
06.12.2011 01:50 1,9 C 10,0 C 1,2 C 0,5 C -2,2 C 0,0 C 85 % 92 % 0 % 1008,2 hPa 0,0 l/m 10,1 km/h (2 Bft) W-SW 247 0 min 0,0 UV-I -0,3 C -6,0 C 13,8 km/h (3 Bft)
06.12.2011 01:55 1,8 C 10,0 C 1,2 C 0,8 C -2,4 C 0,0 C 85 % 92 % 0 % 1008,2 hPa 0,0 l/m 10,9 km/h (2 Bft) W-SW 247 0 min 0,0 UV-I -0,4 C -6,4 C 19,0 km/h (3 Bft)
06.12.2011 02:00 1,9 C 10,0 C 1,3 C 0,5 C -2,4 C 0,0 C 85 % 92 % 0 % 1007,7 hPa 0,0 l/m 10,9 km/h (2 Bft) SW 225 0 min 0,0 UV-I -0,3 C -6,4 C 12,2 km/h (2 Bft)
06.12.2011 02:12 1,9 C 10,0 C 1,2 C 0,9 C -1,9 C 0,0 C 85 % 92 % 0 % 1007,7 hPa 0,0 l/m 8,7 km/h (2 Bft) N 0 0 min 0,0 UV-I -0,3 C -5,2 C 9,2 km/h (2 Bft)
06.12.2011 02:20 1,7 C 10,0 C 1,2 C 0,6 C -1,6 C 0,0 C 85 % 92 % 0 % 1007,9 hPa 0,0 l/m 6,6 km/h (2 Bft) W 270 0 min 0,0 UV-I -0,5 C -4,1 C 7,9 km/h (2 Bft)
06.12.2011 02:25 1,7 C 9,9 C 1,2 C 0,8 C -2,1 C 0,0 C 85 % 92 % 0 % 1007,9 hPa 0,0 l/m 8,0 km/h (2 Bft) SW 225 0 min 0,0 UV-I -0,5 C -5,2 C 19,6 km/h (3 Bft)
06.12.2011 02:30 1,9 C 9,9 C 1,2 C 0,9 C -2,3 C 0,0 C 85 % 92 % 0 % 1007,9 hPa 0,0 l/m 9,3 km/h (2 Bft) SW 225 0 min 0,0 UV-I -0,3 C -5,9 C 18,0 km/h (3 Bft)
06.12.2011 02:35 1,9 C 9,9 C 1,2 C 0,8 C -2,8 C 0,0 C 85 % 92 % 0 % 1007,9 hPa 0,0 l/m 11,7 km/h (2 Bft) W-SW 247 0 min 0,0 UV-I -0,3 C -7,1 C 21,9 km/h (4 Bft)
06.12.2011 02:40 1,9 C 9,9 C 1,2 C 0,8 C -2,7 C 0,0 C 84 % 92 % 0 % 1008,1 hPa 0,0 l/m 11,9 km/h (2 Bft) W-SW 247 0 min 0,0 UV-I -0,5 C -7,0 C 8,0 km/h (2 Bft)
06.12.2011 02:45 2,0 C 9,8 C 1,3 C 0,9 C -2,4 C 0,0 C 84 % 92 % 0 % 1008,1 hPa 0,0 l/m 10,6 km/h (2 Bft) W 270 0 min 0,0 UV-I -0,4 C -6,3 C 27,5 km/h (4 Bft)
06.12.2011 02:50 2,0 C 9,9 C 1,3 C 0,9 C -2,2 C 0,0 C 84 % 92 % 0 % 1008,1 hPa 0,0 l/m 9,8 km/h (2 Bft) SW 225 0 min 0,0 UV-I -0,4 C -5,9 C 11,6 km/h (2 Bft)
06.12.2011 02:55 2,0 C 9,8 C 1,5 C 1,0 C -1,9 C 0,0 C 84 % 92 % 0 % 1008,1 hPa 0,0 l/m 8,9 km/h (2 Bft) W 270 0 min 0,0 UV-I -0,4 C -5,3 C 14,3 km/h (3 Bft)
06.12.2011 03:00 2,0 C 9,8 C 1,3 C 1,0 C -2,0 C 0,0 C 83 % 92 % 0 % 1008,1 hPa 0,0 l/m 8,5 km/h (2 Bft) W-SW 247 0 min 0,0 UV-I -0,6 C -5,3 C 11,1 km/h (2 Bft)
06.12.2011 03:12 1,9 C 9,8 C 1,3 C 0,9 C -1,8 C 0,0 C 83 % 92 % 0 % 1008,1 hPa 0,0 l/m 7,7 km/h (2 Bft) N 0 0 min 0,0 UV-I -0,7 C -4,7 C 11,9 km/h (2 Bft)
06.12.2011 03:20 1,9 C 9,7 C 1,3 C 1,0 C -0,8 C 0,0 C 82 % 92 % 0 % 1008,2 hPa 0,0 l/m 5,1 km/h (1 Bft) O-NO 67 0 min 0,0 UV-I -0,8 C -2,5 C 6,0 km/h (2 Bft)
06.12.2011 03:25 2,0 C 9,7 C 1,4 C 0,8 C -1,5 C 0,0 C 82 % 92 % 0 % 1008,2 hPa 0,0 l/m 6,9 km/h (2 Bft) SO 135 0 min 0,0 UV-I -0,7 C -4,1 C 5,8 km/h (2 Bft)
06.12.2011 03:30 2,0 C 9,7 C 1,3 C 0,9 C -1,4 C 0,0 C 82 % 92 % 0 % 1008,2 hPa 0,0 l/m 6,6 km/h (2 Bft) W 270 0 min 0,0 UV-I -0,7 C -3,9 C 13,2 km/h (3 Bft)
06.12.2011 03:35 2,0 C 9,7 C 1,5 C 1,2 C -0,5 C 0,0 C 82 % 92 % 0 % 1008,2 hPa 0,0 l/m 4,5 km/h (1 Bft) O-NO 67 0 min 0,0 UV-I -0,7 C -0,5 C 4,3 km/h (1 Bft)
06.12.2011 03:40 2,0 C 9,7 C 1,5 C 1,3 C -0,2 C 0,0 C 82 % 91 % 0 % 1008,2 hPa 0,0 l/m 4,0 km/h (1 Bft) SO 135 0 min 0,0 UV-I -0,7 C -0,2 C 3,7 km/h (1 Bft)
06.12.2011 03:45 1,9 C 9,7 C 1,5 C 1,2 C -0,2 C 0,0 C 83 % 91 % 0 % 1008,2 hPa 0,0 l/m 3,9 km/h (1 Bft) NW 315 0 min 0,0 UV-I -0,7 C -0,2 C 4,0 km/h (1 Bft)
06.12.2011 03:50 1,9 C 9,7 C 1,5 C 1,1 C -0,4 C 0,0 C 84 % 91 % 0 % 1008,2 hPa 0,0 l/m 4,2 km/h (1 Bft) W-SW 247 0 min 0,0 UV-I -0,5 C -0,4 C 2,9 km/h (1 Bft)
06.12.2011 03:55 1,8 C 9,7 C 1,5 C 0,8 C -1,1 C 0,0 C 84 % 92 % 0 % 1008,2 hPa 0,0 l/m 5,6 km/h (1 Bft) SO 135 0 min 0,0 UV-I -0,6 C -3,1 C 4,7 km/h (1 Bft)
06.12.2011 04:00 1,9 C 9,7 C 1,5 C 1,0 C -0,8 C 0,0 C 84 % 92 % 0 % 1008,1 hPa 0,0 l/m 5,1 km/h (1 Bft) S 180 0 min 0,0 UV-I -0,5 C -2,5 C 9,0 km/h (2 Bft)
06.12.2011 04:04 1,9 C 9,7 C 1,5 C 1,4 C 0,4 C 0,0 C 84 % 92 % 0 % 1008,1 hPa 0,0 l/m 2,9 km/h (1 Bft) S 180 0 min 0,0 UV-I -0,5 C 0,4 C 4,3 km/h (1 Bft)
06.12.2011 04:09 1,9 C 9,7 C 1,4 C 1,3 C 0,2 C 0,0 C 84 % 92 % 0 % 1008,1 hPa 0,0 l/m 3,2 km/h (1 Bft) S 180 0 min 0,0 UV-I -0,5 C 0,2 C 7,9 km/h (2 Bft)
06.12.2011 04:14 1,9 C 9,7 C 1,5 C 1,1 C -0,6 C 0,0 C 84 % 92 % 0 % 1008,1 hPa 0,0 l/m 4,7 km/h (1 Bft) O 90 0 min 0,0 UV-I -0,5 C -2,1 C 16,7 km/h (3 Bft)
06.12.2011 04:18 1,9 C 9,7 C 1,5 C 1,1 C -0,4 C 0,0 C 84 % 92 % 0 % 1008,2 hPa 0,0 l/m 4,7 km/h (1 Bft) NW 315 0 min 0,0 UV-I -0,5 C -1,9 C 1,8 km/h (1 Bft)
06.12.2011 04:25 1,8 C 9,7 C 1,5 C 1,1 C -0,4 C 0,0 C 84 % 92 % 0 % 1008,2 hPa 0,0 l/m 4,8 km/h (1 Bft) SW 225 0 min 0,0 UV-I -0,6 C -1,9 C 6,6 km/h (2 Bft)
06.12.2011 04:30 1,9 C 9,7 C 1,5 C 1,3 C 0,0 C 0,0 C 84 % 92 % 0 % 1008,2 hPa 0,0 l/m 4,0 km/h (1 Bft) S 180 0 min 0,0 UV-I -0,5 C 0,0 C 9,7 km/h (2 Bft)
06.12.2011 04:35 1,9 C 9,7 C 1,6 C 1,1 C -0,6 C 0,0 C 84 % 92 % 0 % 1008,2 hPa 0,0 l/m 5,5 km/h (1 Bft) S-SO 157 0 min 0,0 UV-I -0,5 C -2,5 C 6,4 km/h (2 Bft)
06.12.2011 04:40 2,0 C 9,7 C 1,6 C 1,1 C -0,6 C 0,0 C 84 % 92 % 0 % 1008,1 hPa 0,0 l/m 5,8 km/h (2 Bft) S-SW 202 0 min 0,0 UV-I -0,4 C -2,6 C 4,3 km/h (1 Bft)
06.12.2011 04:45 1,9 C 9,7 C 1,6 C 1,3 C 0,1 C 0,0 C 84 % 92 % 0 % 1008,1 hPa 0,0 l/m 4,2 km/h (1 Bft) W 270 0 min 0,0 UV-I -0,5 C 0,1 C 3,4 km/h (1 Bft)
06.12.2011 04:50 1,9 C 9,7 C 1,6 C 1,5 C 0,6 C 0,0 C 84 % 92 % 0 % 1008,1 hPa 0,0 l/m 3,2 km/h (1 Bft) S-SO 157 0 min 0,0 UV-I -0,5 C 0,6 C 3,9 km/h (1 Bft)
06.12.2011 04:55 1,9 C 9,6 C 1,5 C 1,4 C 0,4 C 0,0 C 84 % 92 % 0 % 1008,1 hPa 0,0 l/m 3,4 km/h (1 Bft) S-SW 202 0 min 0,0 UV-I -0,5 C 0,4 C 5,8 km/h (2 Bft)
06.12.2011 05:00 1,9 C 9,6 C 1,6 C 1,2 C -0,3 C 0,0 C 83 % 92 % 0 % 1007,8 hPa 0,0 l/m 4,7 km/h (1 Bft) S-SO 157 0 min 0,0 UV-I -0,7 C -1,8 C 13,7 km/h (3 Bft)
06.12.2011 05:10 1,9 C 9,6 C 1,6 C 1,2 C -0,1 C 0,0 C 83 % 91 % 0 % 1007,8 hPa 0,0 l/m 4,5 km/h (1 Bft) N 0 0 min 0,0 UV-I -0,7 C -0,1 C 5,6 km/h (1 Bft)
06.12.2011 05:20 2,0 C 9,5 C 1,6 C 1,4 C 0,2 C 0,0 C 82 % 91 % 0 % 1008,0 hPa 0,0 l/m 4,2 km/h (1 Bft) S-SW 202 0 min 0,0 UV-I -0,7 C 0,2 C 7,6 km/h (2 Bft)
06.12.2011 05:25 1,9 C 9,5 C 1,7 C 1,3 C 0,2 C 0,0 C 82 % 91 % 0 % 1008,0 hPa 0,0 l/m 4,2 km/h (1 Bft) SW 225 0 min 0,0 UV-I -0,8 C 0,2 C 9,2 km/h (2 Bft)
06.12.2011 05:30 2,0 C 9,5 C 1,6 C 1,3 C 0,0 C 0,0 C 82 % 91 % 0 % 1008,0 hPa 0,0 l/m 4,7 km/h (1 Bft) SO 135 0 min 0,0 UV-I -0,7 C -1,4 C 7,7 km/h (2 Bft)
06.12.2011 05:35 2,0 C 9,5 C 1,7 C 1,3 C 0,0 C 0,0 C 81 % 90 % 0 % 1008,0 hPa 0,0 l/m 5,0 km/h (1 Bft) N 360 0 min 0,0 UV-I -0,9 C -1,6 C 4,8 km/h (1 Bft)
06.12.2011 05:40 2,0 C 9,5 C 1,7 C 1,2 C -0,3 C 0,0 C 81 % 91 % 0 % 1008,0 hPa 0,0 l/m 6,0 km/h (2 Bft) W-SW 247 0 min 0,0 UV-I -0,9 C -2,4 C 8,0 km/h (2 Bft)
06.12.2011 05:45 2,0 C 9,5 C 1,7 C 1,4 C 0,1 C 0,0 C 81 % 91 % 0 % 1008,0 hPa 0,0 l/m 5,5 km/h (1 Bft) W 270 0 min 0,0 UV-I -0,9 C -1,7 C 6,1 km/h (2 Bft)
06.12.2011 05:50 2,0 C 9,5 C 1,7 C 1,3 C -0,2 C 0,0 C 81 % 90 % 0 % 1008,0 hPa 0,0 l/m 5,6 km/h (1 Bft) W 270 0 min 0,0 UV-I -0,9 C -2,1 C 12,4 km/h (3 Bft)
06.12.2011 05:55 2,1 C 9,5 C 1,7 C 1,4 C 0,1 C 0,0 C 81 % 90 % 0 % 1008,0 hPa 0,0 l/m 5,1 km/h (1 Bft) SO 135 0 min 0,0 UV-I -0,8 C -1,5 C 5,1 km/h (1 Bft)
06.12.2011 06:00 2,0 C 9,5 C 1,7 C 1,4 C 0,2 C 0,0 C 81 % 90 % 0 % 1008,0 hPa 0,0 l/m 4,5 km/h (1 Bft) S 180 0 min 0,0 UV-I -0,9 C 0,2 C 9,7 km/h (2 Bft)
06.12.2011 06:10 2,0 C 9,5 C 1,7 C 1,5 C 0,4 C 0,0 C 81 % 90 % 0 % 1008,0 hPa 0,0 l/m 4,2 km/h (1 Bft) N 0 0 min 0,0 UV-I -0,9 C 0,4 C 5,5 km/h (1 Bft)
06.12.2011 06:20 2,1 C 9,4 C 1,9 C 1,4 C -0,1 C 0,0 C 81 % 90 % 0 % 1007,8 hPa 0,0 l/m 5,1 km/h (1 Bft) S-SO 157 0 min 0,0 UV-I -0,8 C -1,7 C 12,4 km/h (3 Bft)
06.12.2011 06:25 2,2 C 9,4 C 1,8 C 1,6 C 0,3 C 0,0 C 81 % 90 % 0 % 1007,8 hPa 0,0 l/m 4,5 km/h (1 Bft) SO 135 0 min 0,0 UV-I -0,7 C 0,3 C 4,7 km/h (1 Bft)
06.12.2011 06:30 2,3 C 9,4 C 1,9 C 1,7 C 0,4 C 0,0 C 81 % 90 % 0 % 1007,8 hPa 0,0 l/m 4,7 km/h (1 Bft) S 180 0 min 0,0 UV-I -0,6 C -1,0 C 6,8 km/h (2 Bft)
06.12.2011 06:35 2,3 C 9,4 C 2,0 C 1,7 C 0,4 C 0,0 C 81 % 90 % 0 % 1007,8 hPa 0,0 l/m 4,8 km/h (1 Bft) W 270 0 min 0,0 UV-I -0,6 C -1,0 C 11,4 km/h (2 Bft)
06.12.2011 06:40 2,3 C 9,4 C 2,0 C 1,7 C 0,6 C 0,0 C 81 % 90 % 0 % 1007,9 hPa 0,0 l/m 4,8 km/h (1 Bft) O-SO 112 0 min 0,0 UV-I -0,6 C -0,8 C 6,9 km/h (2 Bft)
06.12.2011 06:45 2,4 C 9,4 C 2,0 C 1,8 C 0,6 C 0,0 C 80 % 89 % 0 % 1007,9 hPa 0,0 l/m 5,0 km/h (1 Bft) S-SO 157 0 min 0,0 UV-I -0,7 C -0,9 C 7,6 km/h (2 Bft)
06.12.2011 06:50 2,4 C 9,4 C 2,1 C 1,9 C 0,8 C 0,0 C 81 % 90 % 0 % 1007,9 hPa 0,0 l/m 4,3 km/h (1 Bft) NO 45 0 min 0,0 UV-I -0,5 C 0,8 C 5,3 km/h (1 Bft)
06.12.2011 06:55 2,5 C 9,4 C 2,1 C 1,9 C 0,6 C 0,0 C 80 % 89 % 0 % 1007,9 hPa 0,0 l/m 5,1 km/h (1 Bft) W-SW 247 0 min 0,0 UV-I -0,6 C -1,0 C 8,4 km/h (2 Bft)
06.12.2011 07:00 2,4 C 9,4 C 2,1 C 1,8 C 0,6 C 0,0 C 80 % 89 % 0 % 1007,9 hPa 0,0 l/m 5,3 km/h (1 Bft) O-SO 112 0 min 0,0 UV-I -0,7 C -1,0 C 9,3 km/h (2 Bft)
06.12.2011 07:10 2,5 C 9,4 C 2,3 C 1,8 C 0,4 C 0,0 C 80 % 89 % 0 % 1007,9 hPa 0,0 l/m 6,3 km/h (2 Bft) N 0 0 min 0,0 UV-I -0,6 C -1,7 C 9,2 km/h (2 Bft)
06.12.2011 07:20 2,5 C 9,4 C 2,3 C 1,9 C 0,8 C 0,0 C 80 % 89 % 0 % 1008,1 hPa 0,0 l/m 5,5 km/h (1 Bft) S-SO 157 0 min 0,0 UV-I -0,6 C -0,9 C 7,1 km/h (2 Bft)
06.12.2011 07:25 2,7 C 9,4 C 2,3 C 2,1 C 0,8 C 0,0 C 80 % 89 % 0 % 1008,1 hPa 0,0 l/m 5,6 km/h (1 Bft) N 360 0 min 0,0 UV-I -0,4 C -0,9 C 4,7 km/h (1 Bft)
06.12.2011 07:30 2,7 C 9,4 C 2,4 C 2,1 C 0,8 C 0,0 C 80 % 89 % 0 % 1008,1 hPa 0,0 l/m 5,6 km/h (1 Bft) S 180 0 min 0,0 UV-I -0,4 C -0,9 C 6,3 km/h (2 Bft)
06.12.2011 07:35 2,7 C 9,4 C 2,3 C 2,0 C 0,7 C 0,0 C 80 % 89 % 0 % 1008,1 hPa 0,0 l/m 5,8 km/h (2 Bft) O-NO 67 0 min 0,0 UV-I -0,4 C -1,1 C 10,9 km/h (2 Bft)
06.12.2011 07:40 2,7 C 9,4 C 2,3 C 2,0 C 0,6 C 0,0 C 80 % 90 % 0 % 1008,2 hPa 0,0 l/m 5,8 km/h (2 Bft) SW 225 0 min 0,0 UV-I -0,4 C -1,3 C 8,0 km/h (2 Bft)
06.12.2011 07:45 2,5 C 9,4 C 2,3 C 2,0 C 0,9 C 0,0 C 81 % 90 % 0 % 1008,2 hPa 0,0 l/m 4,7 km/h (1 Bft) S 180 0 min 0,0 UV-I -0,4 C -0,4 C 5,0 km/h (1 Bft)
06.12.2011 07:50 2,5 C 9,4 C 2,2 C 2,0 C 1,0 C 0,0 C 81 % 90 % 0 % 1008,2 hPa 0,0 l/m 4,5 km/h (1 Bft) W-SW 247 0 min 0,0 UV-I -0,4 C 1,0 C 12,7 km/h (3 Bft)
06.12.2011 07:55 2,5 C 9,4 C 2,3 C 2,0 C 0,9 C 0,0 C 81 % 90 % 0 % 1008,2 hPa 0,0 l/m 4,8 km/h (1 Bft) W-SW 247 0 min 0,0 UV-I -0,4 C -0,5 C 5,8 km/h (2 Bft)
06.12.2011 08:00 2,6 C 9,4 C 2,4 C 2,1 C 1,2 C 0,0 C 81 % 90 % 0 % 1008,2 hPa 0,0 l/m 4,3 km/h (1 Bft) O-NO 67 0 min 0,0 UV-I -0,3 C 1,2 C 4,8 km/h (1 Bft)
06.12.2011 08:10 2,7 C 9,4 C 2,3 C 2,3 C 1,6 C 0,0 C 81 % 90 % 0 % 1008,2 hPa 0,0 l/m 3,5 km/h (1 Bft) N 0 0 min 0,0 UV-I -0,2 C 1,6 C 5,3 km/h (1 Bft)
06.12.2011 08:20 2,6 C 9,4 C 2,3 C 1,8 C 0,2 C 0,0 C 81 % 90 % 0 % 1008,4 hPa 0,0 l/m 6,4 km/h (2 Bft) W-SW 247 0 min 0,0 UV-I -0,3 C -2,0 C 8,2 km/h (2 Bft)
06.12.2011 08:25 2,6 C 9,4 C 2,3 C 1,8 C 0,3 C 0,0 C 81 % 90 % 0 % 1008,4 hPa 0,0 l/m 6,6 km/h (2 Bft) W-SW 247 0 min 0,0 UV-I -0,3 C -1,9 C 9,5 km/h (2 Bft)
06.12.2011 08:30 2,6 C 9,4 C 2,3 C 1,9 C 0,4 C 0,0 C 81 % 90 % 0 % 1008,4 hPa 0,0 l/m 6,1 km/h (2 Bft) S-SW 202 0 min 0,0 UV-I -0,3 C -1,6 C 6,3 km/h (2 Bft)
06.12.2011 08:35 2,5 C 9,4 C 2,3 C 1,7 C 0,2 C 0,0 C 82 % 90 % 0 % 1008,4 hPa 0,0 l/m 6,8 km/h (2 Bft) W-SW 247 0 min 0,0 UV-I -0,3 C -2,1 C 9,2 km/h (2 Bft)
06.12.2011 08:40 2,6 C 9,4 C 2,3 C 2,0 C -0,1 C 0,0 C 82 % 90 % 0 % 1008,4 hPa 0,0 l/m 8,2 km/h (2 Bft) W-SW 247 0 min 0,0 UV-I -0,2 C -2,9 C 16,3 km/h (3 Bft)
06.12.2011 08:45 2,7 C 9,4 C 2,4 C 2,1 C 0,2 C 0,0 C 82 % 90 % 0 % 1008,4 hPa 0,0 l/m 7,9 km/h (2 Bft) SO 135 0 min 0,0 UV-I -0,1 C -2,5 C 7,6 km/h (2 Bft)
06.12.2011 08:50 2,7 C 9,4 C 2,5 C 1,9 C 0,3 C 0,0 C 82 % 90 % 0 % 1008,4 hPa 0,0 l/m 7,6 km/h (2 Bft) SW 225 0 min 0,0 UV-I -0,1 C -2,3 C 9,3 km/h (2 Bft)
06.12.2011 08:55 2,6 C 9,4 C 2,4 C 2,0 C -0,3 C 0,0 C 82 % 89 % 0 % 1008,4 hPa 0,0 l/m 10,5 km/h (2 Bft) W-SW 247 0 min 0,0 UV-I -0,2 C -3,8 C 17,4 km/h (3 Bft)
06.12.2011 09:00 2,6 C 9,4 C 2,4 C 1,9 C -1,0 C 0,0 C 82 % 89 % 0 % 1008,6 hPa 0,0 l/m 12,4 km/h (3 Bft) S-SW 202 0 min 0,0 UV-I -0,2 C -5,1 C 21,7 km/h (4 Bft)
06.12.2011 09:10 2,5 C 9,5 C 2,3 C 1,6 C -1,2 C 0,0 C 85 % 90 % 0 % 1008,6 hPa 0,0 l/m 11,3 km/h (2 Bft) N 0 0 min 0,0 UV-I 0,2 C -5,1 C 15,3 km/h (3 Bft)
06.12.2011 09:20 2,4 C 9,5 C 2,3 C 1,6 C -0,4 C 0,0 C 85 % 90 % 0 % 1008,7 hPa 0,0 l/m 7,7 km/h (2 Bft) SW 225 0 min 0,0 UV-I 0,1 C -3,1 C 11,9 km/h (2 Bft)
06.12.2011 09:25 2,4 C 9,5 C 2,4 C 1,6 C 0,0 C 0,0 C 85 % 90 % 0 % 1008,7 hPa 0,0 l/m 6,8 km/h (2 Bft) W-SW 247 0 min 0,0 UV-I 0,1 C -2,3 C 10,6 km/h (2 Bft)
06.12.2011 09:30 2,4 C 9,5 C 2,4 C 1,6 C 0,1 C 0,0 C 85 % 90 % 0 % 1008,7 hPa 0,0 l/m 6,8 km/h (2 Bft) N-NW 337 0 min 0,0 UV-I 0,1 C -2,2 C 4,7 km/h (1 Bft)
06.12.2011 09:35 2,5 C 9,4 C 2,5 C 1,9 C 0,6 C 0,0 C 85 % 90 % 0 % 1008,7 hPa 0,0 l/m 6,3 km/h (2 Bft) W-SW 247 0 min 0,0 UV-I 0,2 C -1,5 C 13,5 km/h (3 Bft)
06.12.2011 09:40 2,5 C 9,4 C 2,5 C 1,9 C 0,8 C 0,0 C 84 % 89 % 0 % 1008,7 hPa 0,0 l/m 6,1 km/h (2 Bft) NW 315 0 min 0,0 UV-I 0,1 C -1,1 C 8,7 km/h (2 Bft)
06.12.2011 09:45 2,6 C 9,4 C 2,5 C 1,9 C 0,6 C 0,0 C 84 % 89 % 0 % 1008,7 hPa 0,0 l/m 7,1 km/h (2 Bft) W-SW 247 0 min 0,0 UV-I 0,2 C -1,7 C 10,8 km/h (2 Bft)
06.12.2011 09:50 2,7 C 9,4 C 2,7 C 2,0 C 0,6 C 0,0 C 84 % 89 % 0 % 1008,7 hPa 0,0 l/m 7,1 km/h (2 Bft) W-SW 247 0 min 0,0 UV-I 0,3 C -1,7 C 6,1 km/h (2 Bft)
06.12.2011 09:55 2,7 C 9,4 C 2,7 C 2,2 C 0,5 C 0,0 C 84 % 89 % 0 % 1008,7 hPa 0,0 l/m 7,7 km/h (2 Bft) S 180 0 min 0,0 UV-I 0,3 C -2,1 C 5,5 km/h (1 Bft)
06.12.2011 10:00 2,7 C 9,4 C 2,8 C 2,0 C 0,7 C 0,0 C 84 % 88 % 0 % 1008,6 hPa 0,0 l/m 7,4 km/h (2 Bft) SW 225 0 min 0,0 UV-I 0,3 C -1,7 C 11,6 km/h (2 Bft)
06.12.2011 10:10 2,9 C 9,4 C 2,8 C 2,3 C 1,2 C 0,0 C 84 % 88 % 0 % 1008,6 hPa 0,0 l/m 6,6 km/h (2 Bft) N 0 0 min 0,0 UV-I 0,5 C -0,9 C 5,3 km/h (1 Bft)
06.12.2011 10:20 2,9 C 9,4 C 2,9 C 2,5 C 0,9 C 0,0 C 83 % 87 % 0 % 1008,8 hPa 0,0 l/m 8,7 km/h (2 Bft) W-SW 247 0 min 0,0 UV-I 0,3 C -1,9 C 8,5 km/h (2 Bft)
06.12.2011 10:25 3,1 C 9,4 C 3,1 C 2,6 C 0,6 C 0,0 C 82 % 87 % 0 % 1008,8 hPa 0,0 l/m 10,1 km/h (2 Bft) S-SO 157 0 min 0,0 UV-I 0,3 C -2,6 C 15,6 km/h (3 Bft)
06.12.2011 10:30 3,1 C 9,4 C 3,1 C 2,5 C 0,4 C 0,0 C 82 % 87 % 0 % 1008,8 hPa 0,0 l/m 11,3 km/h (2 Bft) W-SW 247 0 min 0,0 UV-I 0,3 C -3,2 C 17,2 km/h (3 Bft)
06.12.2011 10:35 3,2 C 9,4 C 3,2 C 2,6 C 0,5 C 0,0 C 81 % 86 % 0 % 1008,8 hPa 0,0 l/m 11,7 km/h (2 Bft) SW 225 0 min 0,0 UV-I 0,3 C -3,1 C 18,2 km/h (3 Bft)
06.12.2011 10:40 3,2 C 9,3 C 3,3 C 2,7 C 0,9 C 0,0 C 81 % 85 % 0 % 1008,9 hPa 0,0 l/m 10,5 km/h (2 Bft) W-SW 247 0 min 0,0 UV-I 0,3 C -2,4 C 14,0 km/h (3 Bft)
06.12.2011 10:45 3,5 C 9,4 C 3,2 C 3,0 C 1,2 C 0,0 C 80 % 85 % 0 % 1008,9 hPa 0,0 l/m 10,6 km/h (2 Bft) W-SW 247 0 min 0,0 UV-I 0,4 C -2,0 C 10,1 km/h (2 Bft)
06.12.2011 10:50 3,5 C 9,4 C 3,2 C 3,0 C 1,1 C 0,0 C 80 % 85 % 0 % 1008,9 hPa 0,0 l/m 11,1 km/h (2 Bft) SW 225 0 min 0,0 UV-I 0,4 C -2,3 C 13,4 km/h (3 Bft)
06.12.2011 10:55 3,5 C 9,3 C 3,3 C 3,0 C 1,0 C 0,0 C 79 % 85 % 0 % 1008,9 hPa 0,0 l/m 10,9 km/h (2 Bft) W-SW 247 0 min 0,0 UV-I 0,2 C -2,3 C 9,7 km/h (2 Bft)
06.12.2011 11:00 3,5 C 9,3 C 3,3 C 2,9 C 0,8 C 0,0 C 79 % 84 % 0 % 1009,0 hPa 0,0 l/m 11,4 km/h (2 Bft) W-SW 247 0 min 0,0 UV-I 0,2 C -2,7 C 12,4 km/h (3 Bft)
06.12.2011 11:04 3,6 C 9,3 C 3,3 C 3,0 C 1,4 C 0,0 C 79 % 84 % 0 % 1009,0 hPa 0,0 l/m 11,3 km/h (2 Bft) W 270 0 min 0,0 UV-I 0,3 C -2,0 C 8,5 km/h (2 Bft)
06.12.2011 11:09 3,6 C 9,3 C 3,4 C 3,3 C 2,0 C 0,0 C 79 % 83 % 0 % 1009,0 hPa 0,0 l/m 10,3 km/h (2 Bft) W 270 0 min 0,0 UV-I 0,3 C -1,0 C 6,9 km/h (2 Bft)
06.12.2011 11:14 3,7 C 9,3 C 3,5 C 3,6 C 3,1 C 0,0 C 79 % 83 % 0 % 1009,0 hPa 0,0 l/m 7,7 km/h (2 Bft) S 180 0 min 0,0 UV-I 0,4 C 1,0 C 11,4 km/h (2 Bft)
06.12.2011 11:18 3,7 C 9,3 C 3,6 C 3,7 C 2,9 C 0,0 C 79 % 83 % 0 % 1008,8 hPa 0,0 l/m 7,9 km/h (2 Bft) W-SW 247 0 min 0,0 UV-I 0,4 C 0,7 C 15,0 km/h (3 Bft)
06.12.2011 11:25 3,9 C 9,3 C 3,6 C 3,8 C 2,4 C 0,0 C 78 % 82 % 0 % 1008,8 hPa 0,0 l/m 11,7 km/h (2 Bft) S-SW 202 0 min 0,0 UV-I 0,4 C -0,8 C 11,3 km/h (2 Bft)
06.12.2011 11:30 3,9 C 9,3 C 3,6 C 3,7 C 2,2 C 0,0 C 78 % 82 % 0 % 1008,8 hPa 0,0 l/m 12,6 km/h (3 Bft) W-SW 247 0 min 0,0 UV-I 0,4 C -1,3 C 13,8 km/h (3 Bft)
06.12.2011 11:35 4,0 C 9,3 C 3,7 C 3,7 C 1,9 C 0,0 C 77 % 82 % 0 % 1008,8 hPa 0,0 l/m 12,6 km/h (3 Bft) W 270 0 min 0,0 UV-I 0,3 C -1,6 C 15,9 km/h (3 Bft)
06.12.2011 11:40 4,0 C 9,3 C 3,7 C 3,6 C 1,7 C 0,0 C 77 % 82 % 0 % 1009,3 hPa 0,0 l/m 13,0 km/h (3 Bft) SW 225 0 min 0,0 UV-I 0,3 C -1,9 C 11,4 km/h (2 Bft)
06.12.2011 11:45 4,0 C 9,3 C 3,9 C 3,6 C 1,9 C 0,0 C 76 % 81 % 0 % 1009,3 hPa 0,0 l/m 11,9 km/h (2 Bft) S 180 0 min 0,0 UV-I 0,2 C -1,5 C 19,2 km/h (3 Bft)
06.12.2011 11:50 4,1 C 9,3 C 3,8 C 3,4 C 1,9 C 0,0 C 76 % 81 % 0 % 1009,3 hPa 0,0 l/m 12,9 km/h (3 Bft) W-SW 247 0 min 0,0 UV-I 0,3 C -1,7 C 17,5 km/h (3 Bft)
06.12.2011 11:55 4,2 C 9,3 C 4,0 C 3,8 C 2,1 C 0,0 C 76 % 80 % 0 % 1009,3 hPa 0,0 l/m 14,6 km/h (3 Bft) SW 225 0 min 0,0 UV-I 0,4 C -1,8 C 25,1 km/h (4 Bft)
06.12.2011 12:00 4,2 C 9,3 C 4,0 C 3,5 C 2,1 C 0,0 C 76 % 81 % 0 % 1009,1 hPa 0,0 l/m 14,3 km/h (3 Bft) W 270 0 min 0,0 UV-I 0,4 C -1,7 C 10,8 km/h (2 Bft)
06.12.2011 12:05 4,4 C 9,2 C 4,3 C 4,1 C 2,8 C 0,0 C 76 % 81 % 0 % 1009,1 hPa 0,0 l/m 12,4 km/h (3 Bft) W-SW 247 0 min 0,0 UV-I 0,5 C -0,5 C 16,3 km/h (3 Bft)
06.12.2011 12:10 4,4 C 9,4 C 4,3 C 4,1 C 2,7 C 0,0 C 76 % 80 % 0 % 1009,1 hPa 0,0 l/m 11,9 km/h (2 Bft) W-SW 247 0 min 0,0 UV-I 0,5 C -0,5 C 18,3 km/h (3 Bft)
06.12.2011 12:15 4,5 C 9,4 C 4,4 C 4,2 C 2,9 C 0,0 C 75 % 80 % 0 % 1009,1 hPa 0,0 l/m 12,2 km/h (2 Bft) W-SW 247 0 min 0,0 UV-I 0,5 C -0,3 C 15,8 km/h (3 Bft)
06.12.2011 12:20 4,5 C 9,4 C 4,4 C 4,3 C 3,1 C 0,0 C 75 % 80 % 0 % 1008,8 hPa 0,0 l/m 11,4 km/h (2 Bft) SW 225 0 min 0,0 UV-I 0,5 C 0,1 C 16,9 km/h (3 Bft)
06.12.2011 12:25 4,7 C 9,4 C 4,5 C 4,5 C 3,3 C 0,0 C 75 % 79 % 0 % 1008,8 hPa 0,0 l/m 11,1 km/h (2 Bft) S 180 0 min 0,0 UV-I 0,7 C 0,4 C 16,7 km/h (3 Bft)
06.12.2011 12:30 4,7 C 9,4 C 4,7 C 4,5 C 3,5 C 0,0 C 74 % 78 % 0 % 1008,8 hPa 0,0 l/m 10,9 km/h (2 Bft) W-SW 247 0 min 0,0 UV-I 0,5 C 0,7 C 14,2 km/h (3 Bft)
06.12.2011 12:35 4,9 C 9,3 C 4,8 C 4,8 C 3,7 C 0,0 C 74 % 78 % 0 % 1008,8 hPa 0,0 l/m 12,4 km/h (3 Bft) NW 315 0 min 0,0 UV-I 0,7 C 0,6 C 17,1 km/h (3 Bft)
06.12.2011 12:40 4,8 C 9,3 C 4,8 C 4,7 C 3,6 C 0,0 C 72 % 77 % 0 % 1008,4 hPa 0,0 l/m 13,4 km/h (3 Bft) W 270 0 min 0,0 UV-I 0,2 C 0,3 C 18,3 km/h (3 Bft)
06.12.2011 12:45 4,8 C 9,3 C 4,9 C 4,5 C 2,6 C 0,0 C 71 % 76 % 0 % 1008,4 hPa 0,0 l/m 16,6 km/h (3 Bft) SW 225 0 min 0,0 UV-I -0,0 C -1,5 C 17,5 km/h (3 Bft)
06.12.2011 12:50 4,8 C 9,3 C 4,8 C 4,4 C 2,3 C 0,0 C 72 % 75 % 0 % 1008,4 hPa 0,0 l/m 17,4 km/h (3 Bft) SW 225 0 min 0,0 UV-I 0,2 C -2,0 C 14,6 km/h (3 Bft)
06.12.2011 12:55 4,8 C 9,3 C 4,9 C 4,3 C 1,9 C 0,0 C 71 % 75 % 0 % 1008,4 hPa 0,0 l/m 17,7 km/h (3 Bft) W 270 0 min 0,0 UV-I -0,0 C -2,5 C 30,4 km/h (5 Bft)
06.12.2011 13:00 4,8 C 9,3 C 4,8 C 4,3 C 2,0 C 0,0 C 71 % 75 % 0 % 1008,3 hPa 0,0 l/m 18,5 km/h (3 Bft) W-SW 247 0 min 0,0 UV-I -0,0 C -2,5 C 23,0 km/h (4 Bft)
06.12.2011 13:12 4,9 C 9,3 C 4,9 C 4,4 C 2,6 C 0,0 C 71 % 74 % 0 % 1008,3 hPa 0,0 l/m 15,8 km/h (3 Bft) N 0 0 min 0,0 UV-I 0,1 C -1,3 C 25,4 km/h (4 Bft)
06.12.2011 13:20 4,8 C 9,3 C 4,9 C 4,4 C 2,4 C 0,0 C 71 % 75 % 0 % 1008,6 hPa 0,0 l/m 16,6 km/h (3 Bft) SW 225 0 min 0,0 UV-I -0,0 C -1,7 C 23,5 km/h (4 Bft)
06.12.2011 13:25 4,8 C 9,3 C 4,8 C 4,4 C 2,5 C 0,0 C 71 % 75 % 0 % 1008,6 hPa 0,0 l/m 16,4 km/h (3 Bft) W-SW 247 0 min 0,0 UV-I -0,0 C -1,6 C 20,4 km/h (4 Bft)
06.12.2011 13:30 4,9 C 9,3 C 4,8 C 4,1 C 2,5 C 0,0 C 70 % 74 % 0 % 1008,6 hPa 0,0 l/m 16,1 km/h (3 Bft) W 270 0 min 0,0 UV-I -0,1 C -1,5 C 14,2 km/h (3 Bft)
06.12.2011 13:35 4,7 C 9,4 C 4,6 C 4,2 C 2,0 C 0,0 C 71 % 74 % 0 % 1008,6 hPa 0,0 l/m 15,4 km/h (3 Bft) W-SW 247 0 min 0,0 UV-I -0,1 C -2,0 C 18,5 km/h (3 Bft)
06.12.2011 13:40 4,7 C 9,4 C 4,5 C 4,1 C 1,9 C 0,0 C 71 % 74 % 0 % 1008,4 hPa 0,0 l/m 14,5 km/h (3 Bft) S-SW 202 0 min 0,0 UV-I -0,1 C -2,0 C 14,8 km/h (3 Bft)
06.12.2011 13:45 4,5 C 9,4 C 4,5 C 4,0 C 2,0 C 0,0 C 72 % 76 % 0 % 1008,4 hPa 0,0 l/m 14,0 km/h (3 Bft) W-SW 247 0 min 0,0 UV-I -0,1 C -1,8 C 21,2 km/h (4 Bft)
06.12.2011 13:50 4,6 C 9,4 C 4,6 C 4,2 C 2,7 C 0,0 C 71 % 75 % 0 % 1008,4 hPa 0,0 l/m 13,0 km/h (3 Bft) W-SW 247 0 min 0,0 UV-I -0,2 C -0,7 C 19,3 km/h (3 Bft)
06.12.2011 13:55 4,7 C 9,4 C 4,6 C 4,4 C 2,8 C 0,0 C 72 % 76 % 0 % 1008,4 hPa 0,0 l/m 12,9 km/h (3 Bft) W-SW 247 0 min 0,0 UV-I 0,1 C -0,6 C 12,2 km/h (2 Bft)
06.12.2011 14:00 4,7 C 9,4 C 4,7 C 4,4 C 3,0 C 0,0 C 71 % 75 % 0 % 1007,9 hPa 0,0 l/m 12,6 km/h (3 Bft) W-SW 247 0 min 0,0 UV-I -0,1 C -0,3 C 25,9 km/h (4 Bft)
06.12.2011 14:04 4,8 C 9,4 C 4,7 C 4,2 C 3,0 C 0,0 C 70 % 74 % 0 % 1007,9 hPa 0,0 l/m 13,8 km/h (3 Bft) W-SW 247 0 min 0,0 UV-I -0,2 C -0,5 C 27,5 km/h (4 Bft)
06.12.2011 14:09 4,8 C 9,4 C 4,7 C 4,4 C 2,4 C 0,0 C 70 % 73 % 0 % 1007,9 hPa 0,0 l/m 17,1 km/h (3 Bft) SW 225 0 min 0,0 UV-I -0,2 C -1,8 C 24,9 km/h (4 Bft)
06.12.2011 14:14 4,8 C 9,4 C 4,7 C 4,4 C 2,5 C 0,0 C 69 % 73 % 0 % 1007,9 hPa 0,0 l/m 17,4 km/h (3 Bft) W-SW 247 0 min 0,0 UV-I -0,4 C -1,7 C 18,8 km/h (3 Bft)
06.12.2011 14:18 4,8 C 9,4 C 4,7 C 4,0 C 2,5 C 0,0 C 69 % 73 % 0 % 1007,9 hPa 0,0 l/m 17,4 km/h (3 Bft) W-SW 247 0 min 0,0 UV-I -0,4 C -1,7 C 18,8 km/h (3 Bft)
06.12.2011 14:20 4,8 C 9,4 C 4,7 C 4,5 C 2,9 C 0,0 C 70 % 73 % 0 % 1008,3 hPa 0,0 l/m 16,4 km/h (3 Bft) SW 225 0 min 0,0 UV-I -0,2 C -1,1 C 17,7 km/h (3 Bft)
06.12.2011 14:25 4,8 C 9,4 C 4,7 C 4,6 C 3,2 C 0,0 C 69 % 73 % 0 % 1008,3 hPa 0,0 l/m 15,3 km/h (3 Bft) SW 225 0 min 0,0 UV-I -0,4 C -0,5 C 18,2 km/h (3 Bft)
06.12.2011 14:30 4,8 C 9,4 C 4,6 C 4,5 C 2,6 C 0,0 C 69 % 73 % 0 % 1008,3 hPa 0,0 l/m 15,6 km/h (3 Bft) W-SW 247 0 min 0,0 UV-I -0,4 C -1,3 C 20,0 km/h (4 Bft)
06.12.2011 14:35 4,7 C 9,4 C 4,5 C 4,3 C 2,5 C 0,0 C 70 % 74 % 0 % 1008,3 hPa 0,0 l/m 13,8 km/h (3 Bft) SW 225 0 min 0,0 UV-I -0,3 C -1,1 C 11,9 km/h (2 Bft)
06.12.2011 14:40 4,7 C 9,4 C 4,4 C 4,2 C 2,2 C 0,0 C 70 % 74 % 0 % 1008,4 hPa 0,0 l/m 13,8 km/h (3 Bft) SW 225 0 min 0,0 UV-I -0,3 C -1,5 C 17,1 km/h (3 Bft)
06.12.2011 14:45 4,5 C 9,4 C 4,4 C 4,1 C 2,3 C 0,0 C 70 % 75 % 0 % 1008,4 hPa 0,0 l/m 12,4 km/h (3 Bft) W-SW 247 0 min 0,0 UV-I -0,5 C -1,1 C 15,1 km/h (3 Bft)
06.12.2011 14:50 4,5 C 9,4 C 4,4 C 4,1 C 2,4 C 0,0 C 70 % 74 % 0 % 1008,4 hPa 0,0 l/m 11,7 km/h (2 Bft) W-SW 247 0 min 0,0 UV-I -0,5 C -0,8 C 19,0 km/h (3 Bft)
06.12.2011 14:55 4,5 C 9,4 C 4,4 C 4,1 C 2,5 C 0,0 C 70 % 75 % 0 % 1008,4 hPa 0,0 l/m 11,4 km/h (2 Bft) SW 225 0 min 0,0 UV-I -0,5 C -0,6 C 18,5 km/h (3 Bft)
06.12.2011 15:00 4,6 C 9,4 C 4,4 C 4,1 C 2,2 C 0,0 C 70 % 74 % 0 % 1008,7 hPa 0,0 l/m 12,1 km/h (2 Bft) S 180 0 min 0,0 UV-I -0,4 C -1,2 C 19,5 km/h (3 Bft)
06.12.2011 15:04 4,7 C 9,4 C 4,5 C 3,9 C 1,8 C 0,0 C 70 % 73 % 0 % 1008,7 hPa 0,0 l/m 13,4 km/h (3 Bft) SW 225 0 min 0,0 UV-I -0,3 C -1,9 C 15,1 km/h (3 Bft)
06.12.2011 15:09 4,7 C 9,4 C 4,4 C 3,7 C 1,8 C 0,0 C 70 % 74 % 0 % 1008,7 hPa 0,0 l/m 12,9 km/h (3 Bft) W-SW 247 0 min 0,0 UV-I -0,3 C -1,8 C 14,3 km/h (3 Bft)
06.12.2011 15:14 4,7 C 9,4 C 4,4 C 4,1 C 2,1 C 0,0 C 70 % 74 % 0 % 1008,7 hPa 0,0 l/m 12,4 km/h (3 Bft) N-NO 22 0 min 0,0 UV-I -0,3 C -1,3 C 14,8 km/h (3 Bft)
06.12.2011 15:17 4,7 C 9,4 C 4,4 C 3,8 C 2,1 C 0,0 C 70 % 74 % 0 % 1008,7 hPa 0,0 l/m 12,4 km/h (3 Bft) N-NO 22 0 min 0,0 UV-I -0,3 C -1,3 C 14,8 km/h (3 Bft)
06.12.2011 15:20 4,7 C 9,4 C 4,5 C 4,1 C 1,7 C 0,0 C 69 % 73 % 0 % 1008,2 hPa 0,0 l/m 14,5 km/h (3 Bft) W 270 0 min 0,0 UV-I -0,5 C -2,2 C 16,3 km/h (3 Bft)
06.12.2011 15:25 4,6 C 9,5 C 4,4 C 3,9 C 1,4 C 0,0 C 69 % 73 % 0 % 1008,2 hPa 0,0 l/m 15,1 km/h (3 Bft) SW 225 0 min 0,0 UV-I -0,6 C -2,7 C 10,8 km/h (2 Bft)
06.12.2011 15:30 4,5 C 9,4 C 4,3 C 3,5 C 1,4 C 0,0 C 70 % 74 % 0 % 1008,2 hPa 0,0 l/m 13,0 km/h (3 Bft) W-SW 247 0 min 0,0 UV-I -0,5 C -2,3 C 15,0 km/h (3 Bft)
06.12.2011 15:35 4,4 C 9,5 C 4,2 C 3,7 C 1,5 C 0,0 C 70 % 74 % 0 % 1008,2 hPa 0,0 l/m 11,9 km/h (2 Bft) SW 225 0 min 0,0 UV-I -0,6 C -2,0 C 14,3 km/h (3 Bft)
06.12.2011 15:40 4,4 C 9,5 C 4,3 C 3,7 C 1,3 C 0,0 C 70 % 74 % 0 % 1008,4 hPa 0,0 l/m 12,9 km/h (3 Bft) W-SW 247 0 min 0,0 UV-I -0,6 C -2,4 C 14,8 km/h (3 Bft)
06.12.2011 15:45 4,4 C 9,5 C 4,3 C 3,7 C 1,4 C 0,0 C 70 % 75 % 0 % 1008,4 hPa 0,0 l/m 11,9 km/h (2 Bft) W-SW 247 0 min 0,0 UV-I -0,6 C -2,1 C 7,7 km/h (2 Bft)
06.12.2011 15:50 4,3 C 9,5 C 4,1 C 3,7 C 1,7 C 0,0 C 71 % 75 % 0 % 1008,4 hPa 0,0 l/m 9,7 km/h (2 Bft) N-NW 337 0 min 0,0 UV-I -0,5 C -1,2 C 5,1 km/h (1 Bft)
06.12.2011 15:55 4,3 C 9,5 C 3,9 C 3,5 C 2,0 C 0,0 C 71 % 75 % 0 % 1008,4 hPa 0,0 l/m 6,9 km/h (2 Bft) S-SW 202 0 min 0,0 UV-I -0,5 C -0,0 C 4,0 km/h (1 Bft)
06.12.2011 16:00 4,1 C 9,5 C 3,8 C 3,4 C 2,1 C 0,0 C 72 % 76 % 0 % 1008,5 hPa 0,0 l/m 6,0 km/h (2 Bft) SW 225 0 min 0,0 UV-I -0,5 C 0,4 C 5,6 km/h (1 Bft)
06.12.2011 16:12 3,8 C 9,5 C 3,6 C 3,2 C 1,9 C 0,0 C 72 % 76 % 0 % 1008,5 hPa 0,0 l/m 5,3 km/h (1 Bft) N 0 0 min 0,0 UV-I -0,8 C 0,4 C 12,4 km/h (3 Bft)
06.12.2011 16:20 3,8 C 9,5 C 3,6 C 3,2 C 0,6 C 0,0 C 73 % 77 % 0 % 1008,7 hPa 0,0 l/m 10,0 km/h (2 Bft) W-SW 247 0 min 0,0 UV-I -0,6 C -2,6 C 16,6 km/h (3 Bft)
06.12.2011 16:25 3,7 C 9,5 C 3,6 C 3,0 C 1,0 C 0,0 C 73 % 77 % 0 % 1008,7 hPa 0,0 l/m 8,4 km/h (2 Bft) O 90 0 min 0,0 UV-I -0,7 C -1,7 C 4,3 km/h (1 Bft)
06.12.2011 16:30 3,6 C 9,5 C 3,4 C 2,9 C 1,5 C 0,0 C 74 % 77 % 0 % 1008,7 hPa 0,0 l/m 6,4 km/h (2 Bft) S-SO 157 0 min 0,0 UV-I -0,6 C -0,4 C 11,7 km/h (2 Bft)
06.12.2011 16:35 3,6 C 9,5 C 3,5 C 3,0 C 1,8 C 0,0 C 74 % 77 % 0 % 1008,7 hPa 0,0 l/m 5,0 km/h (1 Bft) S 180 0 min 0,0 UV-I -0,6 C 0,5 C 2,9 km/h (1 Bft)
06.12.2011 16:40 3,5 C 9,5 C 3,3 C 2,9 C 1,6 C 0,0 C 74 % 77 % 0 % 1008,8 hPa 0,0 l/m 5,1 km/h (1 Bft) N-NO 22 0 min 0,0 UV-I -0,7 C 0,2 C 4,3 km/h (1 Bft)
06.12.2011 16:45 3,4 C 9,5 C 3,2 C 2,8 C 1,7 C 0,0 C 74 % 78 % 0 % 1008,8 hPa 0,0 l/m 4,2 km/h (1 Bft) SO 135 0 min 0,0 UV-I -0,8 C 1,7 C 8,5 km/h (2 Bft)
06.12.2011 16:50 3,5 C 9,5 C 3,2 C 2,8 C 1,4 C 0,0 C 75 % 78 % 0 % 1008,8 hPa 0,0 l/m 4,5 km/h (1 Bft) O-NO 67 0 min 0,0 UV-I -0,5 C 1,4 C 5,0 km/h (1 Bft)
06.12.2011 16:55 3,3 C 9,5 C 3,1 C 2,6 C 1,1 C 0,0 C 75 % 78 % 0 % 1008,8 hPa 0,0 l/m 5,5 km/h (1 Bft) W-SW 247 0 min 0,0 UV-I -0,7 C -0,6 C 4,0 km/h (1 Bft)
06.12.2011 17:00 3,2 C 9,5 C 3,1 C 2,6 C 1,3 C 0,0 C 75 % 79 % 0 % 1008,1 hPa 0,0 l/m 4,8 km/h (1 Bft) N 360 0 min 0,0 UV-I -0,8 C -0,0 C 4,7 km/h (1 Bft)
06.12.2011 17:15 3,2 C 9,5 C 3,1 C 2,5 C 1,2 C 0,0 C 75 % 79 % 0 % 1008,1 hPa 0,0 l/m 5,1 km/h (1 Bft) O-NO 67 0 min 0,0 UV-I -0,8 C -0,3 C 3,5 km/h (1 Bft)
06.12.2011 17:17 3,2 C 9,5 C 3,1 C 2,5 C 1,2 C 0,0 C 75 % 79 % 0 % 1008,1 hPa 0,0 l/m 5,1 km/h (1 Bft) O-NO 67 0 min 0,0 UV-I -0,8 C -0,3 C 3,5 km/h (1 Bft)
06.12.2011 17:20 3,3 C 9,5 C 3,1 C 2,6 C 1,3 C 0,0 C 76 % 79 % 0 % 1008,7 hPa 0,0 l/m 4,5 km/h (1 Bft) N-NW 337 0 min 0,0 UV-I -0,5 C 1,3 C 8,0 km/h (2 Bft)
06.12.2011 17:25 3,2 C 9,5 C 3,1 C 2,6 C 1,3 C 0,0 C 76 % 79 % 0 % 1008,7 hPa 0,0 l/m 4,3 km/h (1 Bft) SW 225 0 min 0,0 UV-I -0,6 C 1,3 C 4,2 km/h (1 Bft)
06.12.2011 17:30 3,2 C 9,5 C 3,1 C 2,5 C 1,0 C 0,0 C 76 % 79 % 0 % 1008,7 hPa 0,0 l/m 5,0 km/h (1 Bft) SO 135 0 min 0,0 UV-I -0,6 C -0,5 C 7,1 km/h (2 Bft)
06.12.2011 17:35 3,1 C 9,5 C 3,1 C 2,4 C 0,9 C 0,0 C 76 % 79 % 0 % 1008,7 hPa 0,0 l/m 5,1 km/h (1 Bft) S 180 0 min 0,0 UV-I -0,7 C -0,6 C 4,3 km/h (1 Bft)
06.12.2011 17:40 3,1 C 9,5 C 3,0 C 2,4 C 0,9 C 0,0 C 76 % 79 % 0 % 1008,5 hPa 0,0 l/m 4,8 km/h (1 Bft) S 180 0 min 0,0 UV-I -0,7 C -0,5 C 4,5 km/h (1 Bft)
06.12.2011 17:45 3,1 C 9,5 C 2,9 C 2,3 C 0,8 C 0,0 C 77 % 80 % 0 % 1008,5 hPa 0,0 l/m 4,3 km/h (1 Bft) SW 225 0 min 0,0 UV-I -0,5 C 0,8 C 11,6 km/h (2 Bft)
06.12.2011 17:50 3,0 C 9,5 C 2,9 C 2,2 C 0,7 C 0,0 C 77 % 80 % 0 % 1008,5 hPa 0,0 l/m 4,7 km/h (1 Bft) S-SO 157 0 min 0,0 UV-I -0,6 C -0,7 C 8,9 km/h (2 Bft)
06.12.2011 17:55 3,1 C 9,5 C 2,8 C 2,3 C 0,6 C 0,0 C 77 % 80 % 0 % 1008,5 hPa 0,0 l/m 5,0 km/h (1 Bft) W 270 0 min 0,0 UV-I -0,5 C -0,9 C 5,6 km/h (1 Bft)
06.12.2011 18:00 2,9 C 9,5 C 2,8 C 2,2 C 0,8 C 0,0 C 77 % 80 % 0 % 1008,2 hPa 0,0 l/m 4,5 km/h (1 Bft) NW 315 0 min 0,0 UV-I -0,7 C 0,8 C 5,0 km/h (1 Bft)
06.12.2011 18:05 2,9 C 9,5 C 2,9 C 2,2 C 0,9 C 0,0 C 78 % 81 % 0 % 1008,2 hPa 0,0 l/m 4,2 km/h (1 Bft) S 180 0 min 0,0 UV-I -0,5 C 0,9 C 5,5 km/h (1 Bft)
06.12.2011 18:10 2,9 C 9,5 C 2,8 C 2,3 C 1,0 C 0,0 C 78 % 81 % 0 % 1008,2 hPa 0,0 l/m 4,0 km/h (1 Bft) W 270 0 min 0,0 UV-I -0,5 C 1,0 C 12,6 km/h (3 Bft)
06.12.2011 18:15 2,8 C 9,5 C 2,8 C 2,2 C 1,0 C 0,0 C 78 % 81 % 0 % 1008,2 hPa 0,0 l/m 3,9 km/h (1 Bft) S 180 0 min 0,0 UV-I -0,6 C 1,0 C 5,3 km/h (1 Bft)
06.12.2011 18:20 2,9 C 9,5 C 2,8 C 2,2 C 0,7 C 0,0 C 78 % 81 % 0 % 1008,8 hPa 0,0 l/m 4,5 km/h (1 Bft) SW 225 0 min 0,0 UV-I -0,5 C 0,7 C 2,4 km/h (1 Bft)
06.12.2011 18:25 2,9 C 9,5 C 2,8 C 2,1 C 0,4 C 0,0 C 79 % 82 % 0 % 1008,8 hPa 0,0 l/m 5,3 km/h (1 Bft) S 180 0 min 0,0 UV-I -0,4 C -1,3 C 4,5 km/h (1 Bft)
06.12.2011 18:30 2,8 C 9,5 C 2,8 C 2,0 C 0,4 C 0,0 C 78 % 82 % 0 % 1008,8 hPa 0,0 l/m 5,3 km/h (1 Bft) S-SO 157 0 min 0,0 UV-I -0,6 C -1,3 C 10,0 km/h (2 Bft)
06.12.2011 18:35 2,8 C 9,5 C 2,8 C 2,0 C 0,5 C 0,0 C 78 % 82 % 0 % 1008,8 hPa 0,0 l/m 5,1 km/h (1 Bft) W 270 0 min 0,0 UV-I -0,6 C -1,1 C 5,0 km/h (1 Bft)
06.12.2011 18:40 2,8 C 9,5 C 2,7 C 2,1 C 0,6 C 0,0 C 78 % 81 % 0 % 1008,8 hPa 0,0 l/m 4,7 km/h (1 Bft) W-NW 292 0 min 0,0 UV-I -0,6 C -0,8 C 3,1 km/h (1 Bft)
06.12.2011 18:45 2,8 C 9,5 C 2,6 C 2,1 C 0,7 C 0,0 C 79 % 81 % 0 % 1008,8 hPa 0,0 l/m 4,3 km/h (1 Bft) S-SO 157 0 min 0,0 UV-I -0,5 C 0,7 C 5,6 km/h (1 Bft)
06.12.2011 18:50 2,8 C 9,5 C 2,7 C 2,0 C 0,4 C 0,0 C 79 % 82 % 0 % 1008,8 hPa 0,0 l/m 4,8 km/h (1 Bft) S 180 0 min 0,0 UV-I -0,5 C -1,0 C 9,7 km/h (2 Bft)
06.12.2011 18:55 2,8 C 9,5 C 2,8 C 2,1 C 0,6 C 0,0 C 79 % 82 % 0 % 1008,8 hPa 0,0 l/m 5,1 km/h (1 Bft) N 360 0 min 0,0 UV-I -0,5 C -1,0 C 9,3 km/h (2 Bft)
06.12.2011 19:00 2,8 C 9,5 C 2,8 C 2,1 C 0,7 C 0,0 C 79 % 82 % 0 % 1009,0 hPa 0,0 l/m 5,5 km/h (1 Bft) S-SO 157 0 min 0,0 UV-I -0,5 C -1,0 C 15,0 km/h (3 Bft)
06.12.2011 19:12 3,1 C 9,5 C 3,0 C 2,3 C 0,8 C 0,0 C 79 % 82 % 0 % 1009,0 hPa 0,0 l/m 6,4 km/h (2 Bft) N 0 0 min 0,0 UV-I -0,2 C -1,3 C 4,3 km/h (1 Bft)
06.12.2011 19:20 3,0 C 9,5 C 2,9 C 2,4 C 1,3 C 0,0 C 79 % 82 % 0 % 1008,7 hPa 0,0 l/m 5,1 km/h (1 Bft) W 270 0 min 0,0 UV-I -0,3 C -0,2 C 6,0 km/h (2 Bft)
06.12.2011 19:25 3,1 C 9,5 C 2,9 C 2,5 C 1,3 C 0,0 C 79 % 82 % 0 % 1008,7 hPa 0,0 l/m 4,7 km/h (1 Bft) S-SW 202 0 min 0,0 UV-I -0,2 C 0,0 C 6,4 km/h (2 Bft)
06.12.2011 19:30 3,1 C 9,5 C 2,8 C 2,5 C 1,2 C 0,0 C 79 % 82 % 0 % 1008,7 hPa 0,0 l/m 4,3 km/h (1 Bft) W-NW 292 0 min 0,0 UV-I -0,2 C 1,2 C 3,7 km/h (1 Bft)
06.12.2011 19:35 2,9 C 9,5 C 2,7 C 2,2 C 0,8 C 0,0 C 79 % 82 % 0 % 1008,7 hPa 0,0 l/m 4,5 km/h (1 Bft) S-SO 157 0 min 0,0 UV-I -0,4 C 0,8 C 4,3 km/h (1 Bft)
06.12.2011 19:40 2,8 C 9,5 C 2,8 C 2,2 C 1,1 C 0,0 C 79 % 82 % 0 % 1009,2 hPa 0,0 l/m 3,9 km/h (1 Bft) SW 225 0 min 0,0 UV-I -0,5 C 1,1 C 5,8 km/h (2 Bft)
06.12.2011 19:45 2,8 C 9,4 C 2,8 C 2,2 C 0,9 C 0,0 C 80 % 82 % 0 % 1009,2 hPa 0,0 l/m 4,2 km/h (1 Bft) S 180 0 min 0,0 UV-I -0,3 C 0,9 C 6,4 km/h (2 Bft)
06.12.2011 19:50 2,8 C 9,4 C 2,8 C 2,2 C 0,9 C 0,0 C 80 % 82 % 0 % 1009,2 hPa 0,0 l/m 4,8 km/h (1 Bft) SW 225 0 min 0,0 UV-I -0,3 C -0,5 C 6,9 km/h (2 Bft)
06.12.2011 19:55 2,8 C 9,4 C 2,9 C 2,2 C 0,9 C 0,0 C 80 % 82 % 0 % 1009,2 hPa 0,0 l/m 4,8 km/h (1 Bft) NO 45 0 min 0,0 UV-I -0,3 C -0,5 C 5,0 km/h (1 Bft)
06.12.2011 20:00 2,9 C 9,4 C 2,9 C 2,3 C 1,2 C 0,0 C 80 % 82 % 0 % 1009,2 hPa 0,0 l/m 4,3 km/h (1 Bft) S 180 0 min 0,0 UV-I -0,2 C 1,2 C 4,3 km/h (1 Bft)
06.12.2011 20:04 2,9 C 9,4 C 2,8 C 2,4 C 1,5 C 0,0 C 80 % 82 % 0 % 1009,2 hPa 0,0 l/m 4,2 km/h (1 Bft) SO 135 0 min 0,0 UV-I -0,2 C 1,5 C 6,6 km/h (2 Bft)
06.12.2011 20:09 2,9 C 9,4 C 2,8 C 2,5 C 1,6 C 0,0 C 80 % 82 % 0 % 1009,2 hPa 0,0 l/m 4,3 km/h (1 Bft) NO 45 0 min 0,0 UV-I -0,2 C 1,6 C 10,8 km/h (2 Bft)
06.12.2011 20:14 3,1 C 9,4 C 2,9 C 2,5 C 1,4 C 0,0 C 80 % 82 % 0 % 1009,2 hPa 0,0 l/m 5,3 km/h (1 Bft) W-NW 292 0 min 0,0 UV-I -0,0 C -0,1 C 4,2 km/h (1 Bft)
06.12.2011 20:18 3,1 C 9,4 C 3,1 C 2,5 C 1,4 C 0,0 C 80 % 82 % 0 % 1009,4 hPa 0,0 l/m 5,3 km/h (1 Bft) S-SO 157 0 min 0,0 UV-I -0,0 C -0,1 C 4,3 km/h (1 Bft)
06.12.2011 20:25 3,1 C 9,4 C 2,9 C 2,6 C 1,6 C 0,0 C 80 % 82 % 0 % 1009,4 hPa 0,0 l/m 4,5 km/h (1 Bft) SO 135 0 min 0,0 UV-I -0,0 C 1,6 C 8,0 km/h (2 Bft)
06.12.2011 20:30 3,1 C 9,4 C 2,9 C 2,5 C 1,4 C 0,0 C 80 % 82 % 0 % 1009,4 hPa 0,0 l/m 5,0 km/h (1 Bft) W 270 0 min 0,0 UV-I -0,0 C -0,0 C 4,3 km/h (1 Bft)
06.12.2011 20:35 3,1 C 9,4 C 3,0 C 2,6 C 1,6 C 0,0 C 80 % 82 % 0 % 1009,4 hPa 0,0 l/m 4,7 km/h (1 Bft) NW 315 0 min 0,0 UV-I -0,0 C 0,4 C 2,9 km/h (1 Bft)
06.12.2011 20:40 3,1 C 9,4 C 3,0 C 2,8 C 2,1 C 0,0 C 80 % 82 % 0 % 1009,8 hPa 0,0 l/m 3,7 km/h (1 Bft) SO 135 0 min 0,0 UV-I -0,0 C 2,1 C 3,2 km/h (1 Bft)
06.12.2011 20:45 3,1 C 9,4 C 3,1 C 2,8 C 2,1 C 0,0 C 80 % 83 % 0 % 1009,8 hPa 0,0 l/m 3,7 km/h (1 Bft) S-SO 157 0 min 0,0 UV-I -0,0 C 2,1 C 7,7 km/h (2 Bft)
06.12.2011 20:50 3,1 C 9,4 C 3,0 C 2,8 C 2,3 C 0,0 C 80 % 83 % 0 % 1009,8 hPa 0,0 l/m 3,5 km/h (1 Bft) W-NW 292 0 min 0,0 UV-I -0,0 C 2,3 C 2,7 km/h (1 Bft)
06.12.2011 20:55 3,1 C 9,4 C 3,0 C 2,8 C 2,3 C 0,0 C 80 % 83 % 0 % 1009,8 hPa 0,0 l/m 3,5 km/h (1 Bft) W 270 0 min 0,0 UV-I -0,0 C 2,3 C 0,0 km/h (0 Bft)
06.12.2011 21:00 3,1 C 9,4 C 3,0 C 2,8 C 2,3 C 0,0 C 80 % 83 % 0 % 1010,1 hPa 0,0 l/m 3,4 km/h (1 Bft) S 180 0 min 0,0 UV-I -0,0 C 2,3 C 8,2 km/h (2 Bft)
06.12.2011 21:04 3,0 C 9,4 C 3,0 C 2,5 C 1,6 C 0,0 C 80 % 83 % 0 % 1010,1 hPa 0,0 l/m 4,7 km/h (1 Bft) S-SO 157 0 min 0,0 UV-I -0,1 C 0,4 C 2,1 km/h (1 Bft)
06.12.2011 21:09 3,1 C 9,4 C 3,0 C 2,5 C 1,2 C 0,0 C 80 % 83 % 0 % 1010,1 hPa 0,0 l/m 5,5 km/h (1 Bft) W-SW 247 0 min 0,0 UV-I -0,0 C -0,4 C 5,6 km/h (1 Bft)
06.12.2011 21:14 3,1 C 9,4 C 2,9 C 2,7 C 1,8 C 0,0 C 80 % 83 % 0 % 1010,1 hPa 0,0 l/m 4,0 km/h (1 Bft) S-SW 202 0 min 0,0 UV-I -0,0 C 1,8 C 9,2 km/h (2 Bft)
06.12.2011 21:17 3,1 C 9,4 C 2,9 C 2,7 C 1,8 C 0,0 C 80 % 83 % 0 % 1010,1 hPa 0,0 l/m 4,0 km/h (1 Bft) S-SW 202 0 min 0,0 UV-I -0,0 C 1,8 C 9,2 km/h (2 Bft)
06.12.2011 21:20 3,1 C 9,4 C 3,1 C 2,6 C 1,7 C 0,0 C 80 % 83 % 0 % 1009,7 hPa 0,0 l/m 4,3 km/h (1 Bft) S 180 0 min 0,0 UV-I -0,0 C 1,7 C 4,5 km/h (1 Bft)
06.12.2011 21:25 3,0 C 9,4 C 2,9 C 2,4 C 1,1 C 0,0 C 80 % 82 % 0 % 1009,7 hPa 0,0 l/m 5,5 km/h (1 Bft) NW 315 0 min 0,0 UV-I -0,1 C -0,6 C 4,3 km/h (1 Bft)
06.12.2011 21:30 3,1 C 9,4 C 2,9 C 2,5 C 1,3 C 0,0 C 80 % 82 % 0 % 1009,7 hPa 0,0 l/m 4,3 km/h (1 Bft) S 180 0 min 0,0 UV-I -0,0 C 1,3 C 5,5 km/h (1 Bft)
06.12.2011 21:35 3,0 C 9,4 C 2,9 C 2,5 C 1,6 C 0,0 C 79 % 82 % 0 % 1009,7 hPa 0,0 l/m 3,5 km/h (1 Bft) SO 135 0 min 0,0 UV-I -0,3 C 1,6 C 3,9 km/h (1 Bft)
06.12.2011 21:40 3,1 C 9,4 C 2,9 C 2,5 C 1,4 C 0,0 C 79 % 82 % 0 % 1009,7 hPa 0,0 l/m 4,0 km/h (1 Bft) SW 225 0 min 0,0 UV-I -0,2 C 1,4 C 3,4 km/h (1 Bft)
06.12.2011 21:45 3,1 C 9,4 C 3,0 C 2,5 C 1,2 C 0,0 C 79 % 82 % 0 % 1009,7 hPa 0,0 l/m 4,5 km/h (1 Bft) S 180 0 min 0,0 UV-I -0,2 C 1,2 C 6,0 km/h (2 Bft)
06.12.2011 21:50 3,1 C 9,4 C 2,9 C 2,5 C 1,2 C 0,0 C 79 % 82 % 0 % 1009,7 hPa 0,0 l/m 4,5 km/h (1 Bft) SW 225 0 min 0,0 UV-I -0,2 C 1,2 C 7,1 km/h (2 Bft)
06.12.2011 21:55 3,1 C 9,4 C 2,9 C 2,4 C 1,1 C 0,0 C 79 % 82 % 0 % 1009,7 hPa 0,0 l/m 5,3 km/h (1 Bft) NO 45 0 min 0,0 UV-I -0,2 C -0,5 C 3,4 km/h (1 Bft)
06.12.2011 22:00 3,1 C 9,4 C 2,9 C 2,5 C 1,3 C 0,0 C 79 % 82 % 0 % 1009,6 hPa 0,0 l/m 4,5 km/h (1 Bft) SO 135 0 min 0,0 UV-I -0,2 C 1,3 C 2,9 km/h (1 Bft)
06.12.2011 22:12 3,2 C 9,4 C 3,1 C 2,7 C 1,6 C 0,0 C 79 % 81 % 0 % 1009,6 hPa 0,0 l/m 5,0 km/h (1 Bft) N 0 0 min 0,0 UV-I -0,1 C 0,2 C 10,6 km/h (2 Bft)
06.12.2011 22:20 3,2 C 9,4 C 3,1 C 2,4 C 0,8 C 0,0 C 79 % 81 % 0 % 1009,9 hPa 0,0 l/m 6,9 km/h (2 Bft) W-SW 247 0 min 0,0 UV-I -0,1 C -1,4 C 9,7 km/h (2 Bft)
06.12.2011 22:25 3,2 C 9,4 C 3,0 C 2,3 C 0,6 C 0,0 C 79 % 81 % 0 % 1009,9 hPa 0,0 l/m 6,9 km/h (2 Bft) S-SW 202 0 min 0,0 UV-I -0,1 C -1,7 C 9,0 km/h (2 Bft)
06.12.2011 22:30 3,2 C 9,4 C 3,0 C 2,4 C 0,7 C 0,0 C 79 % 82 % 0 % 1009,9 hPa 0,0 l/m 6,8 km/h (2 Bft) W-SW 247 0 min 0,0 UV-I -0,1 C -1,5 C 8,7 km/h (2 Bft)
06.12.2011 22:35 3,3 C 9,4 C 3,1 C 2,6 C 1,1 C 0,0 C 79 % 81 % 0 % 1009,9 hPa 0,0 l/m 6,0 km/h (2 Bft) W 270 0 min 0,0 UV-I 0,0 C -0,8 C 4,5 km/h (1 Bft)
06.12.2011 22:40 3,2 C 9,4 C 3,1 C 2,5 C 1,2 C 0,0 C 78 % 81 % 0 % 1010,0 hPa 0,0 l/m 5,6 km/h (1 Bft) S-SW 202 0 min 0,0 UV-I -0,3 C -0,5 C 10,0 km/h (2 Bft)
06.12.2011 22:45 3,1 C 9,4 C 3,1 C 2,4 C 1,1 C 0,0 C 78 % 81 % 0 % 1010,0 hPa 0,0 l/m 5,6 km/h (1 Bft) S-SO 157 0 min 0,0 UV-I -0,4 C -0,6 C 11,3 km/h (2 Bft)
06.12.2011 22:50 3,1 C 9,4 C 3,1 C 2,5 C 1,2 C 0,0 C 78 % 81 % 0 % 1010,0 hPa 0,0 l/m 5,1 km/h (1 Bft) O-SO 112 0 min 0,0 UV-I -0,4 C -0,3 C 10,0 km/h (2 Bft)
06.12.2011 22:55 3,1 C 9,4 C 3,0 C 2,5 C 1,2 C 0,0 C 78 % 81 % 0 % 1010,0 hPa 0,0 l/m 4,5 km/h (1 Bft) NW 315 0 min 0,0 UV-I -0,4 C 1,2 C 5,5 km/h (1 Bft)
06.12.2011 23:00 3,0 C 9,4 C 2,9 C 2,3 C 0,9 C 0,0 C 79 % 81 % 0 % 1009,9 hPa 0,0 l/m 4,5 km/h (1 Bft) W-SW 247 0 min 0,0 UV-I -0,3 C 0,9 C 5,5 km/h (1 Bft)
06.12.2011 23:10 2,8 C 9,4 C 2,8 C 2,1 C 0,6 C 0,0 C 78 % 81 % 0 % 1009,9 hPa 0,0 l/m 4,8 km/h (1 Bft) N 0 0 min 0,0 UV-I -0,6 C -0,8 C 13,8 km/h (3 Bft)
06.12.2011 23:20 2,8 C 9,3 C 2,6 C 1,8 C -0,2 C 0,0 C 78 % 81 % 0 % 1010,6 hPa 0,0 l/m 6,6 km/h (2 Bft) NW 315 0 min 0,0 UV-I -0,6 C -2,5 C 21,2 km/h (4 Bft)
06.12.2011 23:25 2,8 C 9,3 C 2,5 C 1,7 C -0,4 C 0,0 C 78 % 81 % 0 % 1010,6 hPa 0,0 l/m 7,2 km/h (2 Bft) W 270 0 min 0,0 UV-I -0,6 C -2,9 C 13,5 km/h (3 Bft)
06.12.2011 23:30 2,7 C 9,3 C 2,5 C 1,6 C -0,6 C 0,0 C 78 % 81 % 0 % 1010,6 hPa 0,0 l/m 7,6 km/h (2 Bft) W-SW 247 0 min 0,0 UV-I -0,7 C -3,3 C 8,2 km/h (2 Bft)
06.12.2011 23:35 2,7 C 9,3 C 2,4 C 1,6 C -0,6 C 0,0 C 78 % 82 % 0 % 1010,6 hPa 0,0 l/m 7,6 km/h (2 Bft) W-SW 247 0 min 0,0 UV-I -0,7 C -3,3 C 9,8 km/h (2 Bft)
06.12.2011 23:40 2,7 C 9,3 C 2,5 C 1,9 C -0,4 C 0,0 C 78 % 82 % 0 % 1010,8 hPa 0,0 l/m 7,9 km/h (2 Bft) W-SW 247 0 min 0,0 UV-I -0,7 C -3,2 C 8,4 km/h (2 Bft)
06.12.2011 23:45 2,8 C 9,3 C 2,6 C 1,9 C 0,2 C 0,0 C 79 % 82 % 0 % 1010,8 hPa 0,0 l/m 7,2 km/h (2 Bft) W-SW 247 0 min 0,0 UV-I -0,5 C -2,2 C 9,7 km/h (2 Bft)
06.12.2011 23:50 2,8 C 9,3 C 2,6 C 2,1 C 0,7 C 0,0 C 79 % 82 % 0 % 1010,8 hPa 0,0 l/m 6,0 km/h (2 Bft) S-SO 157 0 min 0,0 UV-I -0,5 C -1,2 C 6,8 km/h (2 Bft)
06.12.2011 23:55 2,8 C 9,3 C 2,7 C 2,3 C 1,3 C 0,0 C 79 % 81 % 0 % 1010,8 hPa 0,0 l/m 4,8 km/h (1 Bft) S 180 0 min 0,0 UV-I -0,5 C -0,0 C 5,1 km/h (1 Bft)
_ Min-Zeit 00:00 12:05 00:00 00:00 00:00 00:00 14:14 14:09 00:00 00:20 - 04:04 - - - 00:00 05:35 00:00 20:55
Minimum _ 1,1 C 9,2 C 0,9 C 0,0 C -3,3 C 0,0 C 69 % 73 % 0 % 1006,9 hPa - 2,9 km/h (1 Bft) - - - 0,0 UV-I -0,9 C -8,0 C 0,0 km/h (0 Bft)
_ Max-Zeit 12:35 00:00 12:45 12:35 12:35 00:00 00:00 00:00 00:00 23:40 01:20 13:00 - - 00:00 00:00 12:35 20:50 12:55
Maximum _ 4,9 C 10,3 C 4,9 C 4,8 C 3,7 C 0,0 C 88 % 92 % 0 % 1010,8 hPa 0,7 l/m 18,5 km/h
W-SW (3 Bft)
- - 0 min 0,0 UV-I 0,7 C 2,3 C 30,4 km/h
W (5 Bft)
Durchschnitt _ 3,0 C 9,5 C 2,7 C 2,3 C 0,6 C 0,0 C 79 % 84 % 0 % 1008,6 hPa #0,7 l/m 7,8 km/h (2 Bft) W-SW - #0 min. 0,0 UV-I -0,3 C -1,5 C 10,4 km/h (2 Bft)
2011 www.wetterstation-wechselburg.de